International Virtual Aviation Organisation

Eastern Europe and Northern Asia MCD

 

Карточка аэропорта UHMM

Внимание!
Информация на этой странице в стадии наполнения.
Если вы не увидели какой-то информации, или заметили неточность - пожалуйста сообщите нам!
Спасибо!
Команда RU-STAFF
Название аэропортаСокол
Название аэропорта (англ.)Sokol
Превышение574 ft. (175 m.)
Координаты59°54.666', 150°43.26'
Высота перехода2150m
Эшелон переходаQFE>=733mm:FL090; QFE<733:FL100
Коды ответчика6540-6577
Зона ОрВДМагадан РПИ (UHMM)
Данные METARUHMM 110400Z 36005MPS 9999 NSC M05/M19 Q1022 R10/81//65 NOSIG RMK QFE752 R28/02005MPS
Проноз погоды (TAF)UHMM 110138Z 1103/1209 01005G12MPS 9999 NSC TEMPO 1109/1115 4000 -SHSN BKN025CB BKN060 FM111500 08005G12MPS 5000 -SHSN BKN015CB OVC025 TEMPO 1115/1209 3100 -SHSN VV011
NOTAMshow/hide NOTAM
AWOS   TABLE

Информация о ВПП


Диспетчерские позиции

Позывной Наименование органа УВД Частота
UHMM_APPМагадан-Подход119.3
UHMM_TWRМагадан-Вышка120.8



Спутниковое изображение